Flag for United Kingdom Weather past 2 weeks in Cheltenham, England, United Kingdom

Now
50 °F

Cool.


Feels Like: 45 °F
Forecast: 45 / 56 °F
Wind: 12 mph from South

Location: Little Rissington

Current Time: May 31, 2015 at 12:20:06 AM

Latest Report: May 30, 2015 at 11:00 PM


Visibility: 5 mi

Pressure: 29.86 "Hg

Humidity: 81%

Dew point: 44 °F

Location of CheltenhamLocation

Historic Weather in Cheltenham — Graph

°F

Cheltenham temperature yesterday

Maximum temperature yesterday: 57 °F (at 3:00 PM)
Minimum temperature yesterday: 41 °F (at 12:00 AM)
Average temperature yesterday: 50 °F

Past Weeks' High & Low Weather Summary

 TemperatureHumidityPressure
High64 °F (May 24, 5:00 PM)100% (May 16, 5:00 AM)30.37 "Hg (May 16, 5:00 AM)
Low37 °F (May 20, 4:00 AM)44% (May 30, 5:00 PM)29.54 "Hg (May 18, 12:00 PM)
Average51 °F79%30.06 "Hg
* Reported May 15 11:00 PM — May 30 11:00 PM, Cheltenham, Weather by CustomWeather, © 2015

Note: Actual official high and low records may vary slightly from our data, if they occured in-between our weather recording intervals... More about our weather records

Advertising

Cheltenham weather history for previous 24 hours

 ConditionsComfort  
Time TempWeatherWind HumidityBarometerVisibility
11:00 PM
Sat, May 30
50 °FCool.12 mph81%29.86 "Hg5 mi
9:00 PM51 °FCool.12 mph78%29.89 "Hg12 mi
8:00 PM54 °FCool.17 mph71%29.89 "Hg13 mi
7:00 PM56 °FRefreshingly cool.10 mph59%29.89 "Hg14 mi
6:00 PM56 °FRefreshingly cool.13 mph51%29.91 "Hg16 mi
5:00 PM56 °FRefreshingly cool.15 mph44%29.93 "Hg16 mi
3:00 PM57 °FRefreshingly cool.10 mph57%29.93 "Hg16 mi
2:00 PM57 °FRefreshingly cool.10 mph54%29.94 "Hg17 mi
1:00 PM53 °FCool.6 mph55%29.95 "Hg14 mi
12:00 PM53 °FCool.8 mph57%29.95 "Hg14 mi
11:00 AM51 °FCool.10 mph64%29.95 "Hg14 mi
10:00 AM51 °FCool.13 mph65%29.94 "Hg14 mi
9:00 AM49 °FCool.12 mph74%29.93 "Hg13 mi
8:00 AM47 °FCool.9 mph82%29.92 "Hg12 mi
7:00 AM44 °FQuite cool.7 mph87%29.90 "Hg12 mi
6:00 AM42 °FQuite cool.8 mph92%29.90 "Hg12 mi
5:00 AM43 °FQuite cool.6 mph89%29.88 "Hg12 mi
3:00 AM42 °FQuite cool.6 mph91%29.87 "Hg9 mi
2:00 AM43 °FQuite cool.6 mph87%29.86 "Hg10 mi
1:00 AM44 °FQuite cool.8 mph82%29.86 "Hg11 mi
12:00 AM41 °FQuite cool.8 mph86%29.86 "Hg11 mi
Weather by CustomWeather, © 2015

See weather overviewHow to use our weather pages